TimeEST,TemperatureF,Dew PointF,Humidity,Sea Level PressureIn,VisibilityMPH,Wind Direction,Wind SpeedMPH,Gust SpeedMPH,PrecipitationIn,Events,Conditions,WindDirDegrees,DateUTC
12:15 AM,50.0,32.0,50,30.33,10.0,South,10.4,-,N/A,,Clear,190,2012-11-11 05:15:00
12:35 AM,51.8,32.0,47,30.33,10.0,South,9.2,-,N/A,,Clear,190,2012-11-11 05:35:00
12:55 AM,50.0,32.0,50,30.33,10.0,South,9.2,-,N/A,,Clear,190,2012-11-11 05:55:00
1:15 AM,51.8,32.0,47,30.32,10.0,South,9.2,-,N/A,,Clear,190,2012-11-11 06:15:00
1:40 AM,51.8,32.0,47,30.32,10.0,South,9.2,-,N/A,,Clear,190,2012-11-11 06:40:00
2:00 AM,53.6,32.0,44,30.32,10.0,SSW,9.2,-,N/A,,Clear,200,2012-11-11 07:00:00
2:20 AM,51.8,32.0,47,30.33,10.0,SSW,10.4,-,N/A,,Clear,200,2012-11-11 07:20:00
2:40 AM,51.8,32.0,47,30.33,10.0,South,9.2,-,N/A,,Clear,190,2012-11-11 07:40:00
3:05 AM,51.8,32.0,47,30.32,10.0,SSW,10.4,-,N/A,,Clear,200,2012-11-11 08:05:00
3:25 AM,51.8,32.0,47,30.33,10.0,SSW,9.2,-,N/A,,Clear,200,2012-11-11 08:25:00
3:45 AM,51.8,32.0,47,30.33,10.0,South,9.2,-,N/A,,Clear,190,2012-11-11 08:45:00
4:05 AM,51.8,32.0,47,30.33,10.0,SSW,8.1,-,N/A,,Clear,200,2012-11-11 09:05:00
4:30 AM,51.8,32.0,47,30.34,10.0,SSW,8.1,-,N/A,,Clear,200,2012-11-11 09:30:00
4:50 AM,51.8,32.0,47,30.35,10.0,South,9.2,-,N/A,,Clear,190,2012-11-11 09:50:00
5:10 AM,51.8,30.2,44,30.35,10.0,South,9.2,-,N/A,,Clear,190,2012-11-11 10:10:00
5:30 AM,51.8,30.2,44,30.36,10.0,SSW,8.1,-,N/A,,Clear,200,2012-11-11 10:30:00
5:55 AM,51.8,28.4,41,30.36,10.0,SSW,8.1,-,N/A,,Clear,200,2012-11-11 10:55:00
6:15 AM,51.8,28.4,41,30.37,10.0,South,8.1,-,N/A,,Clear,190,2012-11-11 11:15:00
6:35 AM,51.8,28.4,41,30.37,10.0,South,6.9,-,N/A,,Clear,190,2012-11-11 11:35:00
7:20 AM,53.6,26.6,35,30.39,10.0,South,8.1,-,N/A,,Clear,190,2012-11-11 12:20:00
7:40 AM,55.4,26.6,33,30.40,10.0,SSW,5.8,-,N/A,,Clear,200,2012-11-11 12:40:00
8:20 AM,59.0,26.6,29,30.41,10.0,SW,5.8,-,N/A,,Clear,230,2012-11-11 13:20:00
9:45 AM,59.0,26.6,29,30.43,10.0,West,5.8,-,N/A,,Clear,270,2012-11-11 14:45:00
10:10 AM,59.0,26.6,29,30.43,10.0,West,5.8,-,N/A,,Clear,260,2012-11-11 15:10:00
10:30 AM,59.0,26.6,29,30.43,10.0,West,3.5,-,N/A,,Clear,260,2012-11-11 15:30:00
10:50 AM,59.0,26.6,29,30.42,10.0,WSW,4.6,-,N/A,,Clear,240,2012-11-11 15:50:00
11:10 AM,59.0,26.6,29,30.42,10.0,SW,4.6,-,N/A,,Clear,230,2012-11-11 16:10:00
11:35 AM,59.0,26.6,29,30.40,10.0,South,5.8,-,N/A,,Clear,190,2012-11-11 16:35:00
11:55 AM,60.8,28.4,29,30.39,10.0,SE,5.8,-,N/A,,Clear,140,2012-11-11 16:55:00
12:15 PM,60.8,26.6,27,30.38,10.0,South,6.9,-,N/A,,Clear,170,2012-11-11 17:15:00
12:35 PM,60.8,24.8,25,30.37,10.0,South,8.1,-,N/A,,Clear,190,2012-11-11 17:35:00
1:20 PM,62.6,23.0,22,30.34,10.0,SSE,8.1,-,N/A,,Clear,160,2012-11-11 18:20:00
1:40 PM,62.6,23.0,22,30.34,10.0,SSE,9.2,-,N/A,,Clear,160,2012-11-11 18:40:00
2:00 PM,62.6,23.0,22,30.33,10.0,SSE,10.4,-,N/A,,Clear,160,2012-11-11 19:00:00
2:25 PM,62.6,23.0,22,30.33,10.0,SSE,8.1,-,N/A,,Clear,160,2012-11-11 19:25:00
2:45 PM,64.4,23.0,21,30.32,10.0,ESE,8.1,-,N/A,,Clear,120,2012-11-11 19:45:00
3:05 PM,60.8,30.2,31,30.33,10.0,SE,9.2,-,N/A,,Clear,130,2012-11-11 20:05:00
3:25 PM,60.8,30.2,31,30.33,10.0,SE,11.5,-,N/A,,Clear,130,2012-11-11 20:25:00
3:50 PM,60.8,30.2,31,30.32,10.0,SE,9.2,-,N/A,,Clear,130,2012-11-11 20:50:00
4:10 PM,59.0,28.4,31,30.32,10.0,SE,10.4,-,N/A,,Clear,140,2012-11-11 21:10:00
4:30 PM,59.0,28.4,31,30.32,10.0,ESE,11.5,-,N/A,,Clear,120,2012-11-11 21:30:00
4:50 PM,55.4,30.2,38,30.33,10.0,SE,9.2,18.4,N/A,,Clear,130,2012-11-11 21:50:00
5:15 PM,53.6,32.0,44,30.34,10.0,SE,11.5,-,N/A,,Clear,130,2012-11-11 22:15:00
5:35 PM,53.6,32.0,44,30.34,10.0,ESE,11.5,-,N/A,,Clear,120,2012-11-11 22:35:00
5:55 PM,53.6,32.0,44,30.34,10.0,ESE,12.7,18.4,N/A,,Clear,120,2012-11-11 22:55:00
6:15 PM,51.8,33.8,50,30.35,10.0,SE,11.5,-,N/A,,Clear,130,2012-11-11 23:15:00
6:40 PM,51.8,33.8,50,30.35,10.0,SE,11.5,-,N/A,,Clear,140,2012-11-11 23:40:00
7:00 PM,51.8,33.8,50,30.34,10.0,SE,13.8,-,N/A,,Clear,140,2012-11-12 00:00:00
7:20 PM,51.8,33.8,50,30.34,10.0,SSE,15.0,19.6,N/A,,Clear,150,2012-11-12 00:20:00
7:40 PM,51.8,32.0,47,30.33,10.0,SSE,15.0,-,N/A,,Clear,150,2012-11-12 00:40:00
8:05 PM,53.6,32.0,44,30.33,10.0,SSE,15.0,20.7,N/A,,Clear,150,2012-11-12 01:05:00
8:25 PM,53.6,32.0,44,30.33,10.0,SSE,16.1,21.9,N/A,,Clear,160,2012-11-12 01:25:00
8:45 PM,51.8,32.0,47,30.33,10.0,SSE,16.1,-,N/A,,Clear,150,2012-11-12 01:45:00
9:05 PM,51.8,32.0,47,30.33,10.0,SSE,15.0,25.3,N/A,,Clear,160,2012-11-12 02:05:00
9:30 PM,51.8,32.0,47,30.33,10.0,SSE,16.1,20.7,N/A,,Clear,160,2012-11-12 02:30:00
9:50 PM,51.8,32.0,47,30.33,10.0,South,16.1,21.9,N/A,,Clear,170,2012-11-12 02:50:00
10:10 PM,51.8,33.8,50,30.33,10.0,SSE,13.8,-,N/A,,Clear,160,2012-11-12 03:10:00
11:15 PM,50.0,35.6,58,30.31,10.0,SSE,16.1,-,N/A,,Clear,160,2012-11-12 04:15:00
11:35 PM,50.0,35.6,58,30.31,10.0,SSE,12.7,-,N/A,,Clear,160,2012-11-12 04:35:00
11:55 PM,50.0,37.4,62,30.31,10.0,SSE,15.0,-,N/A,,Clear,160,2012-11-12 04:55:00